GW6496 Weather Reports


time (UTC)temp
C
wind
direction
speed
KPH
gust
KPH
rain 1hr
cm
rain 24hr
cm
rain mn
cm
humidity
%
barometer
mb
20260906120447 21 33 0.0 1.6 0.00 0.00 0.00 99 1014.1
20260906115943 21 117 0.0 1.6 0.00 0.00 0.00 99 1014.1
20260906115438 21 164 0.0 3.2 0.00 0.00 0.00 99 1014.0
20260906114939 21 146 1.6 3.2 0.00 0.00 0.00 99 1013.9
20260906114438 21 102 0.0 1.6 0.00 0.00 0.00 99 1014.0
20260906113934 21 269 0.0 1.6 0.00 0.00 0.00 99 1013.9
20260906113432 21 117 0.0 1.6 0.00 0.00 0.00 99 1014.2
20260906112928 21 89 0.0 3.2 0.00 0.00 0.00 99 1014.0
20260906112424 21 122 1.6 3.2 0.00 0.00 0.00 99 1014.1
20260906111919 21 125 0.0 3.2 0.00 0.00 0.00 99 1013.9
20260906111419 21 137 0.0 3.2 0.00 0.00 0.00 99 1014.0
20260906110914 21 99 3.2 3.2 0.00 0.00 0.00 99 1013.9
20260906110409 21 117 0.0 3.2 0.00 0.00 0.00 99 1013.8
20260906105908 21 113 0.0 1.6 0.00 0.00 0.00 99 1013.7
20260906105404 21 96 0.0 1.6 0.00 0.00 0.00 99 1013.9
20260906104900 21 102 3.2 3.2 0.00 0.00 0.00 99 1013.7
20260906104358 21 44 0.0 1.6 0.00 0.00 0.00 99 1013.8
20260906103857 21 66 0.0 1.6 0.00 0.00 0.00 99 1013.8
20260906103355 21 40 1.6 1.6 0.00 0.00 0.00 99 1013.9
20260906102852 21 202 1.6 3.2 0.00 0.00 0.00 99 1013.8
20260906102350 21 133 0.0 3.2 0.00 0.00 0.00 99 1013.9
20260906101846 21 100 1.6 3.2 0.00 0.00 0.00 99 1013.6
20260906101341 21 131 3.2 3.2 0.00 0.00 0.00 99 1013.6
20260906100837 21 104 0.0 1.6 0.00 0.00 0.00 99 1013.7
20260906100335 21 235 0.0 1.6 0.00 0.00 0.00 99 1013.7
20260906095831 21 115 3.2 3.2 0.00 0.00 0.00 99 1013.8
20260906095326 21 119 3.2 3.2 0.00 0.00 0.00 99 1013.7
20260906094825 21 89 0.0 0.0 0.00 0.00 0.00 99 1013.7
20260906094320 21 113 0.0 1.6 0.00 0.00 0.00 99 1013.8
20260906093817 21 124 0.0 0.0 0.00 0.00 0.00 99 1013.9
20260906093313 21 11 0.0 1.6 0.00 0.00 0.00 99 1013.8
20260906092808 21 117 0.0 0.0 0.00 0.00 0.00 99 1013.9
20260906092307 21 129 0.0 0.0 0.00 0.00 0.00 99 1013.8
20260906091803 21 140 0.0 0.0 0.00 0.00 0.00 99 1013.7
20260906091259 21 32 0.0 0.0 0.00 0.00 0.00 99 1013.7
20260906090755 21 69 0.0 0.0 0.00 0.00 0.00 99 1013.8
20260906090254 21 135 0.0 0.0 0.00 0.00 0.00 99 1013.8
20260906085754 21 122 0.0 3.2 0.00 0.00 0.00 99 1013.9
20260906085253 21 55 0.0 0.0 0.00 0.00 0.00 99 1013.9
20260906084748 21 0 0.0 0.0 0.00 0.00 0.00 99 1013.7
20260906084248 21 6 0.0 1.6 0.00 0.00 0.00 99 1013.9
20260906083743 21 129 0.0 3.2 0.00 0.00 0.00 99 1013.8
20260906083238 21 15 0.0 0.0 0.00 0.00 0.00 99 1013.9
20260906082733 21 20 0.0 0.0 0.00 0.00 0.00 99 1013.7
20260906082228 21 102 0.0 1.6 0.00 0.00 0.00 99 1013.6
20260906081724 21 142 0.0 1.6 0.00 0.00 0.00 99 1013.6
20260906081219 21 103 0.0 1.6 0.00 0.00 0.00 99 1013.4
20260906080716 21 14 0.0 0.0 0.00 0.00 0.00 99 1013.4
20260906080212 21 135 0.0 0.0 0.00 0.00 0.00 99 1013.4
20260906075712 21 117 0.0 1.6 0.00 0.00 0.00 99 1013.3
20260906075206 21 50 0.0 0.0 0.00 0.00 0.00 99 1013.3
20260906074701 21 356 1.6 1.6 0.00 0.00 0.00 99 1013.6
20260906074200 21 135 0.0 0.0 0.00 0.00 0.00 99 1013.8
20260906073655 21 115 0.0 1.6 0.00 0.00 0.00 99 1013.7
20260906073151 21 119 0.0 0.0 0.00 0.00 0.00 99 1013.6
20260906072647 21 119 0.0 0.0 0.00 0.00 0.00 99 1013.8
20260906072142 21 113 0.0 1.6 0.00 0.00 0.00 99 1013.6
20260906071638 21 129 0.0 0.0 0.00 0.00 0.00 99 1013.8
20260906071138 21 48 1.6 1.6 0.00 0.00 0.00 99 1013.8
20260906070635 21 126 0.0 0.0 0.00 0.00 0.00 99 1013.8
20260906070130 21 113 0.0 1.6 0.00 0.00 0.00 99 1013.8
20260906065630 21 89 0.0 0.0 0.00 0.00 0.00 99 1013.7
20260906065125 21 89 0.0 0.0 0.00 0.00 0.00 99 1013.6
20260906064620 21 45 0.0 0.0 0.00 0.00 0.00 99 1013.7
20260906064115 21 18 1.6 1.6 0.00 0.00 0.00 99 1013.7
20260906063610 21 104 0.0 1.6 0.00 0.00 0.00 99 1013.8
20260906063106 21 114 1.6 1.6 0.00 0.00 0.00 99 1013.6
20260906062602 21 40 1.6 3.2 0.00 0.00 0.00 99 1013.9
20260906062101 21 124 0.0 1.6 0.00 0.00 0.00 99 1014.0
20260906061557 21 110 1.6 3.2 0.00 0.00 0.00 99 1014.0
20260906061056 21 113 0.0 1.6 0.00 0.00 0.00 99 1014.0
20260906060553 21 130 0.0 1.6 0.00 0.00 0.00 99 1014.1
20260906060050 21 96 0.0 1.6 0.00 0.00 0.00 99 1014.1
20260906055546 21 124 0.0 0.0 0.00 0.00 0.00 99 1014.2
20260906055041 22 147 0.0 1.6 0.00 0.00 0.00 99 1014.2
20260906054541 22 100 1.6 3.2 0.00 0.00 0.00 99 1014.3
20260906054036 22 38 0.0 1.6 0.00 0.00 0.00 99 1014.5
20260906053532 22 135 0.0 1.6 0.00 0.00 0.00 99 1014.4
20260906053028 21 21 0.0 1.6 0.00 0.00 0.00 99 1014.6
20260906052523 21 50 0.0 1.6 0.00 0.00 0.00 99 1014.6
20260906052020 22 10 0.0 1.6 0.00 0.00 0.00 99 1014.6
20260906051516 22 142 0.0 0.0 0.00 0.00 0.00 99 1014.7
20260906051011 22 95 0.0 1.6 0.00 0.00 0.00 99 1014.8
20260906050506 22 119 1.6 3.2 0.00 0.00 0.00 99 1014.9
20260906050006 22 15 0.0 0.0 0.00 0.00 0.00 99 1014.8
20260906045504 22 10 1.6 3.2 0.00 0.00 0.00 99 1014.9
20260906045000 22 108 0.0 1.6 0.00 0.00 0.00 99 1015.0
20260906044455 22 50 0.0 0.0 0.00 0.00 0.00 99 1014.9
20260906043951 22 59 0.0 1.6 0.00 0.00 0.00 99 1015.0
20260906043446 22 101 1.6 3.2 0.00 0.00 0.00 99 1014.7
20260906042942 22 50 0.0 0.0 0.00 0.00 0.00 99 1014.6
20260906042441 22 6 1.6 3.2 0.00 0.00 0.00 99 1014.4
20260906041936 22 124 0.0 1.6 0.00 0.00 0.00 99 1014.6
20260906041432 22 122 1.6 1.6 0.00 0.00 0.00 99 1014.7
20260906040932 22 134 1.6 1.6 0.00 0.00 0.00 99 1014.6
20260906040427 22 37 0.0 1.6 0.00 0.00 0.00 99 1014.5
20260906035923 22 9 3.2 3.2 0.00 0.81 0.81 99 1014.6
20260906035418 22 8 0.0 1.6 0.00 0.81 0.81 99 1014.6
20260906034913 22 44 0.0 1.6 0.00 0.81 0.81 99 1014.5
20260906034413 22 142 0.0 1.6 0.00 0.81 0.81 99 1014.7
20260906033909 22 89 0.0 1.6 0.00 0.81 0.81 99 1014.6
20260906033408 22 14 1.6 3.2 0.00 0.81 0.81 99 1014.5
20260906032904 22 113 3.2 3.2 0.00 0.81 0.81 99 1014.7
20260906032400 22 53 0.0 0.0 0.00 0.81 0.81 99 1014.7
20260906031855 22 117 0.0 1.6 0.00 0.81 0.81 99 1014.9
20260906031350 22 121 0.0 3.2 0.00 0.81 0.81 99 1014.8
20260906030845 22 38 0.0 0.0 0.00 0.81 0.81 99 1014.8
20260906030341 22 28 0.0 0.0 0.00 0.81 0.81 99 1015.0
20260906025840 22 33 0.0 1.6 0.00 0.81 0.81 99 1015.2
20260906025334 22 49 0.0 1.6 0.00 0.81 0.81 99 1015.0
20260906024834 22 121 0.0 3.2 0.00 0.81 0.81 99 1014.9
20260906024333 22 137 0.0 1.6 0.00 0.81 0.81 99 1015.0
20260906023829 22 96 0.0 1.6 0.00 0.81 0.81 99 1015.0
20260906023325 22 37 0.0 1.6 0.00 0.81 0.81 99 1014.9
20260906022820 22 35 1.6 3.2 0.00 0.81 0.81 99 1015.1
20260906022315 22 61 0.0 1.6 0.00 0.81 0.81 99 1015.2
20260906021811 22 62 0.0 1.6 0.00 0.81 0.81 99 1015.1
20260906021310 22 39 1.6 3.2 0.00 0.81 0.81 99 1015.1
20260906020810 22 11 0.0 1.6 0.00 0.81 0.81 99 1015.1
20260906020309 22 15 0.0 1.6 0.00 0.81 0.81 99 1014.9
20260906015804 22 115 0.0 3.2 0.00 0.81 0.81 99 1015.2
20260906015305 22 96 1.6 3.2 0.00 0.81 0.81 99 1015.1
20260906014803 22 118 1.6 3.2 0.00 0.81 0.81 99 1015.2
20260906014258 22 92 1.6 3.2 0.00 0.81 0.81 99 1015.2
20260906013754 22 27 1.6 3.2 0.00 0.81 0.81 98 1015.1
20260906013249 22 48 0.0 3.2 0.00 0.81 0.81 99 1015.1
20260906012744 22 23 1.6 1.6 0.00 0.81 0.81 98 1014.9
20260906012239 22 343 1.6 3.2 0.00 0.81 0.81 99 1014.8
20260906011735 22 29 1.6 3.2 0.00 0.81 0.81 98 1014.5
20260906011234 22 121 0.0 3.2 0.00 0.81 0.81 98 1014.5
20260906010730 23 87 0.0 1.6 0.00 0.81 0.81 98 1014.6
20260906010226 23 80 0.0 3.2 0.00 0.81 0.81 98 1014.2
20260906005721 23 132 1.6 3.2 0.00 0.81 0.81 98 1014.0
20260906005220 23 130 0.0 3.2 0.00 0.81 0.81 98 1014.0
20260906004719 22 156 0.0 1.6 0.00 0.81 0.81 98 1014.0
20260906004214 22 128 0.0 3.2 0.00 0.81 0.81 98 1014.0
20260906003709 22 65 1.6 1.6 0.00 0.81 0.81 98 1013.9
20260906003205 22 7 0.0 1.6 0.00 0.81 0.81 98 1014.1
20260906002705 22 60 0.0 1.6 0.00 0.81 0.81 98 1014.0
20260906002200 22 79 0.0 1.6 0.00 0.81 0.81 98 1013.8
20260906001655 22 63 1.6 1.6 0.00 0.81 0.81 98 1013.7
20260906001155 22 23 1.6 3.2 0.00 0.81 0.81 98 1013.2
20260906000651 22 50 0.0 1.6 0.00 0.81 0.81 98 1013.1
20260906000146 23 13 0.0 3.2 0.00 0.81 0.81 98 1013.0
20260905235645 23 6 0.0 1.6 0.00 0.81 0.81 98 1012.8
20260905235140 22 44 0.0 3.2 0.00 0.81 0.81 98 1012.8
20260905234636 23 26 1.6 3.2 0.00 0.81 0.81 98 1012.8
20260905234131 23 95 0.0 1.6 0.00 0.81 0.81 98 1012.9
20260905233632 22 89 1.6 3.2 0.00 0.81 0.81 98 1013.0
20260905233125 22 25 0.0 0.0 0.00 0.81 0.81 98 1013.0
20260905232621 22 348 1.6 1.6 0.00 0.81 0.81 98 1013.3
20260905232117 22 25 1.6 3.2 0.00 0.81 0.81 98 1013.3
20260905231617 22 135 0.0 0.0 0.00 0.81 0.81 97 1013.2
20260905231113 22 108 1.6 3.2 0.00 0.81 0.81 97 1013.3
20260905230609 22 112 3.2 3.2 0.00 0.81 0.81 97 1013.3
20260905230107 22 76 3.2 4.8 0.00 0.81 0.81 97 1013.4
20260905225606 22 116 3.2 6.4 0.00 0.81 0.81 97 1013.6
20260905225102 22 62 3.2 3.2 0.00 0.81 0.81 97 1013.8
20260905224601 22 68 0.0 3.2 0.00 0.81 0.81 97 1013.2
20260905224101 22 127 1.6 6.4 0.00 0.81 0.81 97 1013.0
20260905223558 22 33 0.0 3.2 0.00 0.81 0.81 96 1012.9
20260905223054 22 13 1.6 3.2 0.00 0.81 0.81 95 1013.0
20260905222554 22 49 3.2 3.2 0.00 0.81 0.81 94 1012.9
20260905222049 22 30 1.6 3.2 0.05 0.81 0.81 94 1013.2
20260905221546 22 332 1.6 3.2 0.48 0.81 0.81 92 1013.4
20260905221042 22 236 1.6 4.8 1.68 0.79 0.79 89 1013.9
20260905220537 22 156 0.0 6.4 3.35 0.71 0.71 87 1014.2
20260905220033 23 60 0.0 8.0 2.51 0.43 0.43 88 1014.6
20260905215532 25 53 3.2 24.1 0.61 0.10 0.10 79 1014.5
20260905215029 27 290 3.2 9.7 0.00 0.00 0.00 73 1014.1
20260905214524 27 121 3.2 9.7 0.00 0.00 0.00 66 1014.3
20260905214019 29 48 6.4 16.1 0.00 0.00 0.00 59 1014.3
20260905213514 30 76 3.2 14.5 0.00 0.00 0.00 58 1013.9
20260905213010 31 8 6.4 14.5 0.00 0.00 0.00 60 1013.3
20260905212505 32 65 3.2 3.2 0.00 0.00 0.00 65 1012.7
20260905212004 32 339 0.0 1.6 0.00 0.00 0.00 63 1012.4
20260905211459 31 335 3.2 3.2 0.00 0.00 0.00 65 1012.4
20260905210955 32 330 3.2 3.2 0.00 0.00 0.00 65 1012.2
20260905210451 32 342 3.2 3.2 0.00 0.00 0.00 65 1012.5
20260905205950 32 338 3.2 3.2 0.00 0.00 0.00 64 1012.4
20260905205445 33 317 3.2 4.8 0.00 0.00 0.00 60 1012.3
20260905204943 34 300 1.6 4.8 0.00 0.00 0.00 58 1012.3
20260905204439 34 317 3.2 4.8 0.00 0.00 0.00 56 1012.4
20260905203938 33 304 0.0 3.2 0.00 0.00 0.00 57 1012.7
20260905203434 34 335 3.2 6.4 0.00 0.00 0.00 55 1012.7
20260905202930 36 330 3.2 3.2 0.00 0.00 0.00 53 1012.4
20260905202425 35 205 0.0 3.2 0.00 0.00 0.00 52 1012.8
20260905201920 35 343 3.2 3.2 0.00 0.00 0.00 51 1012.7
20260905201416 36 356 3.2 3.2 0.00 0.00 0.00 52 1013.0
20260905200915 36 221 3.2 6.4 0.00 0.00 0.00 49 1013.0
20260905200411 36 321 3.2 4.8 0.00 0.00 0.00 52 1012.9
20260905195909 36 322 3.2 4.8 0.00 0.00 0.00 49 1013.0
20260905195404 36 230 1.6 6.4 0.00 0.00 0.00 47 1012.9
20260905194900 36 259 4.8 6.4 0.00 0.00 0.00 48 1013.0
20260905194400 36 318 3.2 3.2 0.00 0.00 0.00 52 1012.9
20260905193900 35 224 0.0 3.2 0.00 0.00 0.00 53 1013.0
20260905193354 35 300 0.0 3.2 0.00 0.00 0.00 52 1013.2
20260905192850 36 309 3.2 6.4 0.00 0.00 0.00 52 1013.2
20260905192346 36 335 0.0 1.6 0.00 0.00 0.00 50 1013.3
20260905191845 36 315 0.0 4.8 0.00 0.00 0.00 50 1013.4
20260905191344 36 123 1.6 4.8 0.00 0.00 0.00 51 1013.7
20260905190843 36 295 3.2 9.7 0.00 0.00 0.00 50 1013.7
20260905190342 36 257 0.0 6.4 0.00 0.00 0.00 51 1013.6
20260905185841 36 195 4.8 4.8 0.00 0.00 0.00 48 1013.7
20260905185337 35 241 0.0 6.4 0.00 0.00 0.00 52 1013.8
20260905184835 36 126 0.0 4.8 0.00 0.00 0.00 49 1013.8
20260905184335 35 240 4.8 6.4 0.00 0.00 0.00 48 1014.0
20260905183833 36 131 1.6 6.4 0.00 0.00 0.00 48 1014.0
20260905183329 36 41 0.0 6.4 0.00 0.00 0.00 46 1014.1
20260905182824 36 239 4.8 8.0 0.00 0.00 0.00 48 1014.0
20260905182323 35 9 3.2 6.4 0.00 0.00 0.00 51 1014.1
20260905181819 35 38 3.2 4.8 0.00 0.00 0.00 51 1014.1
20260905181318 35 252 3.2 4.8 0.00 0.00 0.00 53 1014.4
20260905180817 35 46 3.2 3.2 0.00 0.00 0.00 54 1014.2
20260905180313 35 325 1.6 8.0 0.00 0.00 0.00 52 1014.4
20260905175808 35 299 3.2 4.8 0.00 0.00 0.00 53 1014.3
20260905175306 35 219 4.8 6.4 0.00 0.00 0.00 52 1014.6
20260905174757 35 260 1.6 11.3 0.00 0.00 0.00 55 1014.5
20260905174253 35 215 4.8 8.0 0.00 0.00 0.00 52 1014.8
20260905173749 35 33 1.6 9.7 0.00 0.00 0.00 55 1014.7
20260905173245 35 117 0.0 4.8 0.00 0.00 0.00 57 1014.7
20260905172744 35 240 6.4 6.4 0.00 0.00 0.00 53 1014.8
20260905172243 35 174 3.2 3.2 0.00 0.00 0.00 57 1014.8
20260905171740 35 344 0.0 3.2 0.00 0.00 0.00 55 1014.9
20260905171236 35 336 3.2 3.2 0.00 0.00 0.00 58 1014.9
20260905170732 34 267 1.6 8.0 0.00 0.00 0.00 54 1014.9
20260905170227 34 29 1.6 4.8 0.00 0.00 0.00 58 1015.1
20260905165721 34 275 1.6 9.7 0.00 0.00 0.00 58 1015.2
20260905165216 34 235 8.0 8.0 0.00 0.00 0.00 55 1015.1
20260905164716 33 339 1.6 3.2 0.00 0.00 0.00 60 1015.4
20260905164216 33 333 3.2 3.2 0.00 0.00 0.00 60 1015.4
20260905163712 33 11 0.0 3.2 0.00 0.00 0.00 61 1015.4
20260905163209 33 120 0.0 3.2 0.00 0.00 0.00 62 1015.5
20260905162704 33 221 3.2 3.2 0.00 0.00 0.00 62 1015.6
20260905162204 33 251 1.6 8.0 0.00 0.00 0.00 57 1015.7
20260905161659 33 58 3.2 3.2 0.00 0.00 0.00 60 1015.5
20260905161157 34 38 3.2 3.2 0.00 0.00 0.00 60 1015.6
20260905160656 33 299 1.6 4.8 0.00 0.00 0.00 56 1015.7
20260905160155 33 206 1.6 6.4 0.00 0.00 0.00 59 1015.8
20260905155650 33 235 9.7 9.7 0.00 0.00 0.00 56 1015.7
20260905155149 33 176 4.8 9.7 0.00 0.00 0.00 60 1015.9
20260905154643 33 3 3.2 3.2 0.00 0.00 0.00 62 1016.0
20260905154139 33 326 1.6 8.0 0.00 0.00 0.00 61 1016.1
20260905153635 33 228 3.2 4.8 0.00 0.00 0.00 60 1015.9
20260905153130 33 114 0.0 3.2 0.00 0.00 0.00 60 1015.9
20260905152625 33 349 3.2 3.2 0.00 0.00 0.00 62 1016.1
20260905152119 33 354 0.0 3.2 0.00 0.00 0.00 59 1016.1
20260905151614 32 36 0.0 1.6 0.00 0.00 0.00 61 1016.1
20260905151110 32 345 0.0 8.0 0.00 0.00 0.00 60 1016.2
20260905150605 32 89 0.0 1.6 0.00 0.00 0.00 61 1016.3
20260905150103 32 223 3.2 4.8 0.00 0.00 0.00 61 1016.4
20260905145602 31 29 0.0 4.8 0.00 0.00 0.00 65 1016.3
20260905145101 31 259 3.2 3.2 0.00 0.00 0.00 67 1016.3
20260905144557 31 293 1.6 3.2 0.00 0.00 0.00 66 1016.3
20260905144055 30 94 1.6 3.2 0.00 0.00 0.00 66 1016.3
20260905143555 30 120 3.2 3.2 0.00 0.00 0.00 69 1016.4
20260905143050 29 226 3.2 4.8 0.00 0.00 0.00 70 1016.2
20260905142550 28 333 0.0 3.2 0.00 0.00 0.00 74 1016.4
20260905142049 27 264 0.0 3.2 0.00 0.00 0.00 80 1016.4
20260905141544 27 21 0.0 3.2 0.00 0.00 0.00 81 1016.5
20260905141041 27 100 1.6 1.6 0.00 0.00 0.00 81 1016.4
20260905140541 27 91 3.2 3.2 0.00 0.00 0.00 79 1016.5
20260905140040 26 50 0.0 1.6 0.00 0.00 0.00 90 1016.4
20260905135536 25 75 0.0 0.0 0.00 0.00 0.00 91 1016.6
20260905135037 25 103 0.0 0.0 0.00 0.00 0.00 92 1016.5
20260905134536 25 118 1.6 3.2 0.00 0.00 0.00 93 1016.6
20260905134035 25 75 0.0 1.6 0.00 0.00 0.00 93 1016.5
20260905133531 25 93 1.6 1.6 0.00 0.00 0.00 93 1016.6
20260905133030 24 110 1.6 1.6 0.00 0.00 0.00 94 1016.6
20260905132530 24 127 0.0 1.6 0.00 0.00 0.00 94 1016.6
20260905132025 24 124 0.0 1.6 0.00 0.00 0.00 95 1016.9
20260905131521 23 126 1.6 1.6 0.00 0.00 0.00 96 1016.9
20260905131016 23 126 1.6 3.2 0.00 0.00 0.00 96 1017.0
20260905130515 23 121 0.0 3.2 0.00 0.00 0.00 97 1016.9
20260905130010 23 238 0.0 3.2 0.00 0.00 0.00 97 1016.9
20260905125504 23 173 0.0 1.6 0.00 0.00 0.00 97 1017.0
20260905125000 22 147 0.0 3.2 0.00 0.00 0.00 98 1017.0
20260905124457 22 111 1.6 3.2 0.00 0.00 0.00 98 1016.7
20260905123952 22 117 1.6 1.6 0.00 0.00 0.00 98 1016.9
20260905123448 22 105 0.0 3.2 0.00 0.00 0.00 98 1016.9
20260905122949 22 89 0.0 3.2 0.00 0.00 0.00 98 1017.0
20260905122448 22 110 0.0 1.6 0.00 0.00 0.00 98 1016.6
20260905121944 22 96 1.6 3.2 0.00 0.00 0.00 98 1016.7
20260905121439 22 85 0.0 3.2 0.00 0.00 0.00 98 1016.9
20260905120938 22 97 3.2 3.2 0.00 0.00 0.00 98 1016.5